This is the latest recevied weather packets stored in our database for station/object KC4GS-13. If no packets are shown the sender has not sent any weather packets the latest 10 day(s).
| Time | Temp. | Humidity | Pressure | Rain* | Wind** | Luminosity | Snow |
|---|---|---|---|---|---|---|---|
| 1787687067 | 34.44° C | 46% | 1016.8 hPa | 0 mm | - | 665 W/m² | - |
| 1787686763 | 34.44° C | 46% | 1016.8 hPa | 0 mm | - | 682 W/m² | - |
| 1787686458 | 33.89° C | 48% | 1016.8 hPa | 0 mm | - | 280 W/m² | - |
| 1787686154 | 34.44° C | 46% | 1017.1 hPa | 0 mm | - | 338 W/m² | - |
| 1787685849 | 34.44° C | 46% | 1016.6 hPa | 0 mm | - | 209 W/m² | - |
| 1787685549 | 34.44° C | 47% | 1016.9 hPa | 0 mm | - | 648 W/m² | - |
| 1787685244 | 35° C | 45% | 1016.9 hPa | 0 mm | - | 166 W/m² | - |
| 1787684938 | 35° C | 45% | 1016.9 hPa | 0 mm | - | 711 W/m² | - |
| 1787684634 | 33.89° C | 47% | 1017 hPa | 0 mm | - | 661 W/m² | - |
| 1787684333 | 33.33° C | 48% | 1017.1 hPa | 0 mm | - | 658 W/m² | - |
| 1787684029 | 33.33° C | 48% | 1017.2 hPa | 0 mm | - | 111 W/m² | - |
| 1787683728 | 33.33° C | 48% | 1017.4 hPa | 0 mm | - | 407 W/m² | - |
| 1787683423 | 33.89° C | 50% | 1017.4 hPa | 0 mm | - | 145 W/m² | - |
| 1787683119 | 33.89° C | 50% | 1017.7 hPa | 0 mm | - | 418 W/m² | - |
| 1787682816 | 33.89° C | 50% | 1017.6 hPa | 0 mm | - | 495 W/m² | - |
| 1787682511 | 33.89° C | 50% | 1017.6 hPa | 0 mm | - | 658 W/m² | - |
| 1787682207 | 33.89° C | 49% | 1017.7 hPa | 0 mm | - | 691 W/m² | - |
| 1787681903 | 33.89° C | 50% | 1017.6 hPa | 0 mm | - | 713 W/m² | - |
| 1787681602 | 33.33° C | 51% | 1018 hPa | 0 mm | - | 643 W/m² | - |
| 1787681297 | 32.78° C | 52% | 1017.9 hPa | 0 mm | - | 664 W/m² | - |
| 1787680993 | 32.78° C | 51% | 1018 hPa | 0 mm | - | 729 W/m² | - |
| 1787680692 | 33.33° C | 52% | 1018 hPa | 0 mm | - | 693 W/m² | - |
| 1787680392 | 33.33° C | 51% | 1018 hPa | 0 mm | - | 691 W/m² | - |
| 1787680090 | 32.78° C | 52% | 1018.1 hPa | 0 mm | - | 737 W/m² | - |
| 1787679785 | 32.78° C | 54% | 1018.4 hPa | 0 mm | - | 712 W/m² | - |
* Rain latest hour (hover to see other rain measurements)
** Current wind speed in m/s (hover to see current wind gust speed)